#timestamp,LO_Frequency,Hit,StdDev 
1610956815.7,286046999.6,N
1610956835.5,286046999.4,N
1610956855.3,286046996.7,N
1610956875.2,286046996.5,N
1610956895.0,286046998.2,N
1610956895.9,286046998.2,N
1610956915.7,286046998.8,N
1610956935.6,286046997.0,N
1610956955.4,286046997.1,N
1610956975.3,286046999.2,N
1610956995.1,286046998.8,N
1610956996.0,286046998.8,N
1610957015.8,286047000.0,N
1610957035.7,286046998.3,N
1610957055.5,286046998.6,N
1610957075.4,286046998.5,N
1610957095.2,286046998.4,N
1610957115.0,286047000.5,N
1610957115.9,286047000.5,N
1610957135.8,286046999.0,N
1610957155.6,286046999.3,N
1610957175.4,286046998.8,N
1610957195.3,286046998.6,N
1610957215.1,286047001.2,N
1610957235.9,286046998.1,N
1610957255.7,286046999.7,N
1610957275.5,286047000.6,N
1610957295.4,286047001.0,N
1610957315.2,286047002.4,N
1610957335.0,286046999.7,N
1610957335.9,286046999.7,N
1610957355.8,286046998.5,N
1610957375.6,286046998.6,N
1610957395.5,286046998.9,N
1610957415.3,286046998.9,N
1610957435.1,286046998.1,N
1610957455.9,286046997.3,N
1610957475.7,286046997.8,N
1610957495.5,286046997.8,N
1610957515.4,286046996.5,Y
1610957535.2,286047001.1,P
1610957555.1,286047001.1,N
1610957556.0,286047001.1,N
1610957575.8,286047000.1,N
1610957595.6,286047002.3,N
1610957615.5,286047001.7,N
1610957635.3,286047001.3,N
1610957655.2,286047002.6,N
1610957675.9,286047000.1,N
1610957695.7,286047002.4,N
1610957715.6,286047000.3,N
1610957735.4,286046999.9,N
1610957755.3,286046998.7,N
1610957775.1,286047000.3,N
1610957795.8,286047000.5,N
1610957815.7,286046998.4,N
1610957835.5,286046999.5,N
1610957855.4,286046998.1,N
1610957875.2,286047000.7,N
1610957895.0,286047000.5,N
1610957895.9,286047000.5,N
1610957915.8,286046999.8,N
1610957935.6,286047001.2,N
1610957955.5,286046998.2,N
1610957975.3,286046998.4,N
1610957995.1,286047000.7,N
1610958015.9,286046999.4,N
1610958035.7,286046997.7,N
1610958055.5,286046997.4,N
1610958075.4,286046997.3,N
1610958095.2,286046996.9,N
1610958115.1,286046998.8,N
1610958116.0,286046998.8,N
1610958135.8,286046998.4,N
1610958155.6,286047000.9,N
1610958175.5,286047000.0,N
1610958195.3,286047000.1,N
1610958215.2,286047000.2,N
1610958235.9,286047000.8,N
1610958255.7,286047000.8,N
1610958275.6,286046999.7,N
1610958295.4,286047002.7,N
1610958315.3,286047002.8,N
1610958335.1,286047000.5,N
1610958336.0,286047000.5,N
1610958355.8,286046999.8,N
1610958375.7,286047000.4,N
1610958395.5,286046999.7,N
1610958415.4,286047002.5,N
1610958435.2,286047001.5,N
1610958455.0,286047000.1,N
1610958455.9,286047000.1,N
1610958475.8,286047000.3,N
1610958495.6,286046999.9,N
1610958515.4,286046999.8,N
1610958535.3,286047002.5,N
1610958555.1,286047000.4,N
1610958575.9,286046999.9,N
1610958595.7,286047000.2,N
1610958615.5,286046998.5,N
1610958635.4,286047000.3,N
1610958655.2,286046999.9,N
1610958675.1,286047000.1,N
1610958676.0,286047000.1,N
1610958695.8,286047002.5,N
1610958715.6,286047001.9,N
1610958735.5,286047002.8,N
1610958755.3,286047002.5,N
1610958775.2,286047004.2,Y
1610958795.9,286047002.4,P
1610958815.7,286047002.6,P
1610958835.6,286047002.0,N
1610958855.4,286047002.0,N
1610958875.3,286047001.9,N
1610958895.1,286046999.2,N
1610958896.0,286046999.2,N
1610958915.8,286046997.0,N
1610958935.7,286046997.8,N
1610958955.5,286046995.8,N
1610958975.4,286046993.8,N
1610958995.2,286046995.8,N
1610959015.0,286046993.8,N
1610959015.9,286046993.8,N
1610959035.8,286046996.3,N
1610959055.6,286046995.9,N
1610959075.5,286046994.4,N
1610959095.3,286046994.0,N
1610959115.1,286046996.2,N
1610959135.9,286046996.1,N
1610959155.7,286046993.4,N
1610959175.5,286046992.8,N
1610959195.4,286046990.5,N
1610959215.2,286046991.0,N
1610959235.1,286046989.4,N
1610959236.0,286046989.4,N
1610959255.8,286046989.4,N
1610959275.6,286046988.7,N
1610959295.5,286046987.1,Y
1610959315.3,286046994.6,P
1610959335.1,286046993.4,P
1610959355.9,286046993.4,P
1610959375.7,286046996.3,Y
1610959395.6,286047000.9,P
1610959415.4,286046998.6,N
1610959435.2,286047000.9,N
1610959455.1,286047000.3,N
1610959456.0,286047000.3,N
1610959475.8,286047000.8,N
1610959495.7,286046996.5,N
1610959515.5,286046998.4,N
1610959535.3,286046996.9,N
1610959555.2,286046996.9,N
1610959575.0,286046996.8,N
1610959575.9,286046996.8,N
1610959595.8,286046995.1,N
1610959615.6,286046995.0,N
1610959635.4,286046997.1,N
1610959655.3,286046997.5,N
1610959675.1,286046997.2,N
1610959695.9,286046997.0,N
1610959715.7,286047001.2,N
1610959735.5,286047000.6,N
1610959755.4,286046999.8,N
1610959775.2,286046998.5,N
1610959795.0,286046998.4,N
1610959795.9,286046998.4,N
1610959815.8,286046998.0,N
1610959835.6,286046995.9,N
1610959855.5,286046993.3,Y
1610959875.3,286046997.2,P
1610959895.1,286046998.8,N
1610959915.9,286047001.2,N
1610959935.7,286046998.4,N
1610959955.5,286046998.1,N
1610959975.4,286046998.5,N
1610959995.2,286046998.6,N
1610960015.1,286046998.6,N
1610960016.0,286046998.6,N
1610960035.8,286046998.5,N
1610960055.6,286046999.4,N
1610960075.5,286046996.6,Y
1610960095.3,286046999.0,P
1610960115.1,286046998.9,P
1610960135.9,286046996.5,P
1610960155.7,286046998.9,N
1610960175.6,286046995.4,Y
1610960195.4,286046997.6,P
1610960215.2,286046994.9,P
1610960235.1,286046995.6,N
1610960236.0,286046995.6,Y
1610960255.8,286047000.4,P
1610960275.7,286046998.2,N
1610960295.5,286047001.0,N
1610960315.3,286047000.9,N
1610960335.2,286046999.9,N
1610960355.0,286047002.0,N
1610960355.9,286047002.0,N
1610960375.7,286047002.3,N
1610960395.6,286047004.4,N
